Location: Downe
(51.3167°N, 0.0500°E)
Time: 03:46:12
(UTC+00:00)

Cosmos 2346 Rocket - Pass Details

Date: 17 November 2019
Orbit: 935 x 981 km, 82.9° (Epoch: 06 December)

Event Time Altitude Azimuth Distance (km) Brightness Sun altitude
Rises 05:39:50 0° 348° (NNW) 3,633 7.3 -15.4°
Reaches altitude 10° 05:42:20 10° 347° (NNW) 2,678 6.6 -15.0°
Maximum altitude 05:48:25 73° 264° (W) 986 4.4 -14.1°
Drops below altitude 10° 05:54:25 10° 181° (S) 2,642 6.9 -13.2°
Sets 05:56:53 0° 180° (S) 3,581 7.7 -12.8°
